| time (UTC) | temp F | wind direction | speed knots | gust knots | rain 1hr in | rain 24hr in | rain mn in | humidity % | barometer mb |
| 20260504235513 | 62 | 232 | 4.3 | 10.4 | 0.00 | 0.00 | 0.00 | 46 | 1008.1 |
| 20260504235013 | 62 | 282 | 5.2 | 9.6 | 0.00 | 0.00 | 0.00 | 45 | 1008.0 |
| 20260504234534 | 62 | 230 | 3.5 | 8.7 | 0.00 | 0.00 | 0.00 | 45 | 1008.0 |
| 20260504234011 | 63 | 212 | 4.3 | 8.7 | 0.00 | 0.00 | 0.00 | 44 | 1007.9 |
| 20260504233516 | 63 | 233 | 4.3 | 7.8 | 0.00 | 0.00 | 0.00 | 44 | 1007.9 |
| 20260504233038 | 63 | 248 | 3.5 | 9.6 | 0.00 | 0.00 | 0.00 | 44 | 1007.9 |
| 20260504232513 | 63 | 258 | 3.5 | 11.3 | 0.00 | 0.00 | 0.00 | 43 | 1007.9 |
| 20260504232012 | 64 | 252 | 4.3 | 11.3 | 0.00 | 0.00 | 0.00 | 43 | 1007.8 |
| 20260504231528 | 64 | 360 | 4.3 | 10.4 | 0.00 | 0.00 | 0.00 | 43 | 1007.7 |
| 20260504231012 | 64 | 286 | 6.1 | 12.2 | 0.00 | 0.00 | 0.00 | 43 | 1007.6 |
| 20260504230512 | 65 | 259 | 5.2 | 14.8 | 0.00 | 0.00 | 0.00 | 42 | 1007.6 |
| 20260504230034 | 66 | 254 | 5.2 | 20.0 | 0.00 | 0.00 | 0.00 | 41 | 1007.4 |
| 20260504225511 | 66 | 252 | 7.0 | 20.0 | 0.00 | 0.00 | 0.00 | 40 | 1007.3 |
| 20260504225012 | 66 | 233 | 9.6 | 19.1 | 0.00 | 0.00 | 0.00 | 39 | 1007.3 |
| 20260504224531 | 67 | 249 | 7.8 | 19.1 | 0.00 | 0.00 | 0.00 | 40 | 1007.2 |
| 20260504224012 | 67 | 257 | 7.8 | 20.0 | 0.00 | 0.00 | 0.00 | 39 | 1007.3 |
| 20260504223511 | 67 | 279 | 8.7 | 20.9 | 0.00 | 0.00 | 0.00 | 38 | 1007.3 |
| 20260504223049 | 67 | 263 | 7.8 | 20.9 | 0.00 | 0.00 | 0.00 | 39 | 1007.2 |
| 20260504222513 | 67 | 259 | 6.1 | 13.9 | 0.00 | 0.00 | 0.00 | 39 | 1007.2 |
| 20260504222015 | 67 | 250 | 7.0 | 15.6 | 0.00 | 0.00 | 0.00 | 40 | 1007.2 |
| 20260504221528 | 67 | 258 | 8.7 | 15.6 | 0.00 | 0.00 | 0.00 | 39 | 1007.2 |
| 20260504221012 | 67 | 247 | 6.1 | 16.5 | 0.00 | 0.00 | 0.00 | 40 | 1007.1 |
| 20260504220513 | 68 | 267 | 8.7 | 16.5 | 0.00 | 0.00 | 0.00 | 39 | 1007.2 |
| 20260504220031 | 68 | 257 | 8.7 | 17.4 | 0.00 | 0.00 | 0.00 | 38 | 1007.1 |
| 20260504215511 | 67 | 265 | 7.8 | 17.4 | 0.00 | 0.00 | 0.00 | 39 | 1007.1 |
| 20260504215012 | 67 | 294 | 8.7 | 20.9 | 0.00 | 0.00 | 0.00 | 38 | 1007.2 |
| 20260504214531 | 67 | 281 | 8.7 | 20.9 | 0.00 | 0.00 | 0.00 | 39 | 1007.2 |
| 20260504214011 | 67 | 248 | 5.2 | 18.2 | 0.00 | 0.00 | 0.00 | 38 | 1007.1 |
| 20260504213516 | 68 | 261 | 7.8 | 23.5 | 0.00 | 0.00 | 0.00 | 37 | 1007.1 |
| 20260504213042 | 69 | 233 | 12.2 | 23.5 | 0.00 | 0.00 | 0.00 | 36 | 1007.2 |
| 20260504212513 | 69 | 251 | 8.7 | 23.5 | 0.00 | 0.00 | 0.00 | 38 | 1007.1 |
| 20260504212015 | 68 | 248 | 10.4 | 23.5 | 0.00 | 0.00 | 0.00 | 37 | 1007.1 |
| 20260504211533 | 68 | 262 | 8.7 | 20.0 | 0.00 | 0.00 | 0.00 | 38 | 1007.1 |
| 20260504211012 | 68 | 280 | 8.7 | 23.5 | 0.00 | 0.00 | 0.00 | 37 | 1007.1 |
| 20260504210512 | 68 | 288 | 11.3 | 23.5 | 0.00 | 0.00 | 0.00 | 37 | 1007.0 |
| 20260504210033 | 68 | 279 | 8.7 | 18.2 | 0.00 | 0.00 | 0.00 | 37 | 1007.1 |
| 20260504205513 | 68 | 241 | 8.7 | 25.2 | 0.00 | 0.00 | 0.00 | 38 | 1007.1 |
| 20260504205011 | 68 | 286 | 12.2 | 25.2 | 0.00 | 0.00 | 0.00 | 38 | 1007.0 |
| 20260504204541 | 69 | 269 | 10.4 | 25.2 | 0.00 | 0.00 | 0.00 | 38 | 1006.8 |
| 20260504204014 | 68 | 284 | 9.6 | 22.6 | 0.00 | 0.00 | 0.00 | 39 | 1006.9 |
| 20260504203512 | 68 | 228 | 8.7 | 18.2 | 0.00 | 0.00 | 0.00 | 38 | 1006.9 |
| 20260504203033 | 67 | 227 | 8.7 | 20.0 | 0.00 | 0.00 | 0.00 | 38 | 1006.9 |
| 20260504202511 | 68 | 259 | 9.6 | 22.6 | 0.00 | 0.00 | 0.00 | 38 | 1006.9 |
| 20260504202012 | 68 | 278 | 10.4 | 22.6 | 0.00 | 0.00 | 0.00 | 38 | 1006.8 |
| 20260504201531 | 68 | 261 | 11.3 | 26.9 | 0.00 | 0.00 | 0.00 | 38 | 1007.0 |
| 20260504201016 | 68 | 277 | 8.7 | 26.9 | 0.00 | 0.00 | 0.00 | 37 | 1006.9 |
| 20260504200513 | 69 | 264 | 10.4 | 22.6 | 0.00 | 0.00 | 0.00 | 37 | 1006.9 |
| 20260504200031 | 69 | 275 | 11.3 | 25.2 | 0.00 | 0.00 | 0.00 | 36 | 1007.0 |
| 20260504195512 | 69 | 318 | 11.3 | 26.1 | 0.00 | 0.00 | 0.00 | 37 | 1006.9 |
| 20260504195016 | 69 | 360 | 13.9 | 26.1 | 0.00 | 0.00 | 0.00 | 37 | 1006.9 |
| 20260504194529 | 68 | 271 | 15.6 | 26.1 | 0.00 | 0.00 | 0.00 | 38 | 1007.0 |
| 20260504194011 | 68 | 275 | 11.3 | 25.2 | 0.00 | 0.00 | 0.00 | 39 | 1007.0 |
| 20260504193512 | 68 | 257 | 12.2 | 26.9 | 0.00 | 0.00 | 0.00 | 39 | 1006.9 |
| 20260504193028 | 68 | 248 | 11.3 | 26.9 | 0.00 | 0.00 | 0.00 | 39 | 1007.0 |
| 20260504192511 | 68 | 241 | 13.9 | 26.9 | 0.00 | 0.00 | 0.00 | 38 | 1007.0 |
| 20260504192013 | 67 | 261 | 9.6 | 20.9 | 0.00 | 0.00 | 0.00 | 39 | 1007.0 |
| 20260504191528 | 67 | 249 | 7.8 | 26.9 | 0.00 | 0.00 | 0.00 | 40 | 1007.1 |
| 20260504191010 | 66 | 269 | 9.6 | 26.9 | 0.00 | 0.00 | 0.00 | 41 | 1007.0 |
| 20260504190514 | 65 | 297 | 8.7 | 22.6 | 0.00 | 0.00 | 0.00 | 42 | 1007.2 |
| 20260504190030 | 64 | 290 | 9.6 | 24.3 | 0.00 | 0.00 | 0.00 | 42 | 1007.3 |
| 20260504185512 | 64 | 284 | 8.7 | 26.1 | 0.00 | 0.00 | 0.00 | 43 | 1007.3 |
| 20260504185012 | 64 | 299 | 13.0 | 26.1 | 0.00 | 0.00 | 0.00 | 43 | 1007.4 |
| 20260504184531 | 64 | 311 | 13.9 | 26.9 | 0.00 | 0.00 | 0.00 | 42 | 1007.3 |
| 20260504184011 | 64 | 264 | 11.3 | 26.9 | 0.00 | 0.00 | 0.00 | 43 | 1007.5 |
| 20260504183513 | 64 | 278 | 10.4 | 22.6 | 0.00 | 0.00 | 0.00 | 42 | 1007.5 |
| 20260504183030 | 64 | 263 | 12.2 | 22.6 | 0.00 | 0.00 | 0.00 | 41 | 1007.4 |
| 20260504182514 | 64 | 290 | 13.0 | 30.4 | 0.00 | 0.00 | 0.00 | 41 | 1007.3 |
| 20260504182011 | 64 | 270 | 12.2 | 30.4 | 0.00 | 0.00 | 0.00 | 42 | 1007.2 |
| 20260504181534 | 64 | 283 | 7.0 | 19.1 | 0.00 | 0.00 | 0.00 | 42 | 1007.3 |
| 20260504181013 | 64 | 277 | 7.8 | 20.9 | 0.00 | 0.00 | 0.00 | 42 | 1007.3 |
| 20260504180513 | 64 | 247 | 10.4 | 20.9 | 0.00 | 0.00 | 0.00 | 40 | 1007.1 |
| 20260504180030 | 64 | 247 | 10.4 | 18.2 | 0.00 | 0.00 | 0.00 | 40 | 1007.2 |
| 20260504175511 | 64 | 270 | 5.2 | 22.6 | 0.00 | 0.00 | 0.00 | 40 | 1007.3 |
| 20260504175012 | 64 | 281 | 8.7 | 22.6 | 0.00 | 0.00 | 0.00 | 41 | 1007.3 |
| 20260504174532 | 64 | 236 | 12.2 | 22.6 | 0.00 | 0.00 | 0.00 | 41 | 1007.3 |
| 20260504174013 | 63 | 221 | 11.3 | 23.5 | 0.00 | 0.00 | 0.00 | 40 | 1007.3 |
| 20260504173512 | 64 | 246 | 13.9 | 23.5 | 0.00 | 0.00 | 0.00 | 40 | 1007.4 |
| 20260504173029 | 64 | 217 | 7.8 | 22.6 | 0.00 | 0.00 | 0.00 | 41 | 1007.3 |
| 20260504172512 | 64 | 269 | 10.4 | 22.6 | 0.00 | 0.00 | 0.00 | 39 | 1007.5 |
| 20260504172013 | 65 | 266 | 11.3 | 21.7 | 0.00 | 0.00 | 0.00 | 39 | 1007.4 |
| 20260504171529 | 65 | 340 | 11.3 | 22.6 | 0.00 | 0.00 | 0.00 | 39 | 1007.2 |
| 20260504171015 | 65 | 248 | 13.9 | 27.8 | 0.00 | 0.00 | 0.00 | 38 | 1007.3 |
| 20260504170511 | 65 | 254 | 13.0 | 29.5 | 0.00 | 0.00 | 0.00 | 38 | 1007.4 |
| 20260504151015 | 62 | 254 | 11.3 | 23.5 | 0.00 | 0.00 | 0.00 | 48 | 1008.0 |
| 20260504150512 | 61 | 241 | 11.3 | 23.5 | 0.00 | 0.00 | 0.00 | 46 | 1008.1 |
| 20260504141012 | 57 | 265 | 10.4 | 20.0 | 0.00 | 0.00 | 0.00 | 53 | 1009.0 |
| 20260504140510 | 57 | 273 | 12.2 | 20.0 | 0.00 | 0.00 | 0.00 | 54 | 1009.0 |
| 20260504130513 | 54 | 242 | 6.1 | 15.6 | 0.00 | 0.00 | 0.00 | 60 | 1009.5 |
| 20260504110512 | 43 | 254 | 8.7 | 15.6 | 0.00 | 0.00 | 0.00 | 72 | 1010.1 |
| 20260504100511 | 40 | 236 | 7.0 | 12.2 | 0.00 | 0.00 | 0.00 | 73 | 1010.0 |
| 20260504081529 | 41 | 265 | 9.6 | 16.5 | 0.00 | 0.00 | 0.00 | 66 | 1009.9 |
| 20260504081012 | 41 | 265 | 7.8 | 14.8 | 0.00 | 0.00 | 0.00 | 66 | 1009.9 |
| 20260504080511 | 41 | 259 | 8.7 | 17.4 | 0.00 | 0.00 | 0.00 | 65 | 1009.8 |
| 20260504050511 | 37 | 254 | 6.1 | 11.3 | 0.00 | 0.00 | 0.00 | 74 | 1009.8 |
| 20260504045511 | 37 | 259 | 7.0 | 11.3 | 0.00 | 0.00 | 0.00 | 74 | 1009.8 |
| 20260504045011 | 37 | 244 | 6.1 | 11.3 | 0.00 | 0.00 | 0.00 | 74 | 1009.8 |
| 20260504044540 | 37 | 282 | 7.0 | 11.3 | 0.00 | 0.00 | 0.00 | 73 | 1009.8 |
| 20260504044010 | 37 | 273 | 6.1 | 9.6 | 0.00 | 0.00 | 0.00 | 72 | 1009.8 |
| 20260504043511 | 37 | 236 | 5.2 | 11.3 | 0.00 | 0.00 | 0.00 | 71 | 1009.7 |
| 20260504043030 | 38 | 254 | 6.1 | 11.3 | 0.00 | 0.00 | 0.00 | 71 | 1009.8 |
| 20260504042512 | 38 | 275 | 7.0 | 11.3 | 0.00 | 0.00 | 0.00 | 72 | 1009.8 |
| 20260504042011 | 38 | 279 | 7.0 | 10.4 | 0.00 | 0.00 | 0.00 | 72 | 1009.7 |
| 20260504041531 | 38 | 268 | 7.0 | 10.4 | 0.00 | 0.00 | 0.00 | 71 | 1009.6 |
| 20260504041013 | 38 | 257 | 6.1 | 10.4 | 0.00 | 0.00 | 0.00 | 71 | 1009.5 |
| 20260504040514 | 38 | 257 | 7.0 | 10.4 | 0.00 | 0.00 | 0.00 | 71 | 1009.5 |
| 20260504040044 | 39 | 248 | 5.2 | 9.6 | 0.00 | 0.00 | 0.00 | 70 | 1009.5 |
| 20260504035511 | 39 | 281 | 4.3 | 9.6 | 0.00 | 0.00 | 0.00 | 70 | 1009.5 |
| 20260504035012 | 39 | 251 | 4.3 | 11.3 | 0.00 | 0.00 | 0.00 | 70 | 1009.5 |
| 20260504034531 | 39 | 271 | 7.0 | 13.0 | 0.00 | 0.00 | 0.00 | 70 | 1009.4 |
| 20260504034011 | 39 | 277 | 7.0 | 13.0 | 0.00 | 0.00 | 0.00 | 70 | 1009.3 |
| 20260504033512 | 39 | 263 | 7.0 | 13.0 | 0.00 | 0.00 | 0.00 | 70 | 1009.3 |
| 20260504033028 | 39 | 271 | 5.2 | 10.4 | 0.00 | 0.00 | 0.00 | 70 | 1009.2 |
| 20260504032511 | 39 | 278 | 7.0 | 10.4 | 0.00 | 0.00 | 0.00 | 70 | 1009.2 |
| 20260504032016 | 39 | 272 | 7.0 | 11.3 | 0.00 | 0.00 | 0.00 | 70 | 1009.2 |
| 20260504031531 | 39 | 286 | 7.0 | 11.3 | 0.00 | 0.00 | 0.00 | 70 | 1009.2 |
| 20260504031011 | 39 | 271 | 7.8 | 11.3 | 0.00 | 0.00 | 0.00 | 70 | 1009.2 |
| 20260504030511 | 39 | 267 | 7.0 | 13.0 | 0.00 | 0.00 | 0.00 | 70 | 1009.2 |
| 20260504030029 | 39 | 281 | 7.8 | 13.0 | 0.00 | 0.00 | 0.00 | 70 | 1009.3 |
| 20260504025510 | 39 | 288 | 7.8 | 13.9 | 0.00 | 0.00 | 0.00 | 70 | 1009.2 |
| 20260504025013 | 39 | 281 | 9.6 | 14.8 | 0.00 | 0.00 | 0.00 | 70 | 1009.2 |
| 20260504024530 | 39 | 265 | 8.7 | 14.8 | 0.00 | 0.00 | 0.00 | 71 | 1009.1 |
| 20260504024013 | 39 | 282 | 7.8 | 13.0 | 0.00 | 0.00 | 0.00 | 70 | 1009.2 |
| 20260504023514 | 39 | 242 | 7.8 | 13.0 | 0.00 | 0.00 | 0.00 | 71 | 1009.1 |
| 20260504023028 | 39 | 256 | 7.8 | 12.2 | 0.00 | 0.00 | 0.00 | 71 | 1009.1 |
| 20260504022514 | 39 | 267 | 7.8 | 12.2 | 0.00 | 0.00 | 0.00 | 71 | 1009.1 |
| 20260504022012 | 39 | 269 | 7.8 | 12.2 | 0.00 | 0.00 | 0.00 | 71 | 1009.2 |
| 20260504021528 | 39 | 252 | 6.1 | 10.4 | 0.00 | 0.00 | 0.00 | 70 | 1009.2 |
| 20260504021012 | 39 | 276 | 6.1 | 8.7 | 0.00 | 0.00 | 0.00 | 69 | 1009.2 |
| 20260504020511 | 39 | 266 | 5.2 | 8.7 | 0.00 | 0.00 | 0.00 | 69 | 1009.2 |
| 20260504020029 | 40 | 274 | 6.1 | 9.6 | 0.00 | 0.00 | 0.00 | 69 | 1009.2 |
| 20260504015513 | 40 | 265 | 5.2 | 10.4 | 0.00 | 0.01 | 0.00 | 69 | 1009.3 |
| 20260504015013 | 40 | 280 | 4.3 | 10.4 | 0.00 | 0.01 | 0.00 | 68 | 1009.3 |
| 20260504014534 | 40 | 243 | 6.1 | 11.3 | 0.00 | 0.01 | 0.00 | 68 | 1009.2 |
| 20260504014012 | 40 | 287 | 6.1 | 11.3 | 0.00 | 0.01 | 0.00 | 68 | 1009.2 |
| 20260504013511 | 40 | 279 | 6.1 | 9.6 | 0.00 | 0.01 | 0.00 | 67 | 1009.3 |
| 20260504013040 | 40 | 273 | 6.1 | 12.2 | 0.00 | 0.01 | 0.00 | 68 | 1009.3 |
| 20260504012516 | 40 | 271 | 7.0 | 12.2 | 0.00 | 0.01 | 0.00 | 68 | 1009.2 |
| 20260504012013 | 40 | 284 | 5.2 | 11.3 | 0.00 | 0.01 | 0.00 | 67 | 1009.1 |
| 20260504011528 | 41 | 291 | 6.1 | 11.3 | 0.00 | 0.01 | 0.00 | 66 | 1009.1 |
| 20260504011013 | 41 | 281 | 7.0 | 11.3 | 0.00 | 0.01 | 0.00 | 66 | 1009.0 |
| 20260504010516 | 41 | 262 | 5.2 | 13.9 | 0.00 | 0.01 | 0.00 | 66 | 1009.0 |
| 20260504010030 | 41 | 302 | 6.1 | 13.9 | 0.00 | 0.01 | 0.00 | 65 | 1008.9 |
| 20260504005512 | 41 | 315 | 7.0 | 13.9 | 0.00 | 0.04 | 0.00 | 64 | 1008.8 |
| 20260504005013 | 41 | 303 | 7.0 | 14.8 | 0.00 | 0.04 | 0.00 | 65 | 1008.8 |
| 20260504004528 | 41 | 280 | 6.1 | 14.8 | 0.00 | 0.04 | 0.00 | 65 | 1008.7 |
| 20260504004012 | 41 | 282 | 6.1 | 11.3 | 0.00 | 0.04 | 0.00 | 64 | 1008.6 |
| 20260504003513 | 42 | 301 | 6.1 | 10.4 | 0.00 | 0.04 | 0.00 | 64 | 1008.5 |
| 20260504003032 | 42 | 304 | 3.5 | 11.3 | 0.00 | 0.04 | 0.00 | 63 | 1008.5 |
| 20260504002511 | 42 | 294 | 5.2 | 11.3 | 0.00 | 0.04 | 0.00 | 63 | 1008.5 |
| 20260504002010 | 42 | 273 | 6.1 | 13.0 | 0.00 | 0.04 | 0.00 | 62 | 1008.5 |
| 20260504001531 | 42 | 305 | 7.8 | 13.0 | 0.00 | 0.04 | 0.00 | 62 | 1008.4 |
| 20260504001013 | 42 | 284 | 7.0 | 13.9 | 0.00 | 0.04 | 0.00 | 62 | 1008.3 |
| 20260504000514 | 43 | 325 | 7.8 | 13.9 | 0.00 | 0.04 | 0.00 | 62 | 1008.2 |
| 20260504000030 | 43 | 286 | 6.1 | 12.2 | 0.00 | 0.04 | 0.00 | 61 | 1008.1 |